www.pogodaiklimat.ru

Погода и климат >> Архив погоды >> Россия >> Краснодарский край >> Горячий Ключ


ПОГОДА в Горячем Ключе

  • Прогноз погоды в Горячем Ключе
  • Монитор погоды в Горячем Ключе

АРХИВ ПОГОДЫ в Горячем Ключе

Время (UTC), дата Ветер
(напр.,м/с)
 
Видим.   Явления Облачность Т
(С)
Тd
(С)
f
(%)
Тe
(С)
Тes
(С)
Комфортность P
(гПа)
Po
(гПа)
Тmin
(С)
Tmax
(С)
R
(мм)
R24
(мм)
S
(см)
06 9.01 З 2 4000 м слаб. ливневой снег [диам. отлож. мокр. снега мм] 10/10 600 м
[Cb cap]
-1.6 -2.8 92 -6 -6 1012.9 1005.0 -1.6
09 9.01 З 1 20 км {ливн. осадки} 9/4 600 м
[Cb calv Ac lent Ci fib]
-0.3 -3.8 77 -2 -1 1016.5 1008.6
12 9.01 Ю 1 20 км {ливн. осадки} 6/1 1000 м
[Cu hum Ac lent Ci fib]
+1.4 -4.6 64 0 +1 1018.0 1010.2
15 9.01 штиль 0 20 км 1/0
[Ci fib]
-2.0 -3.2 91 -3 -3 1019.5 1011.6 +2.3 2
18 9.01 штиль 0 20 км ясно -3.0 -4.0 93 -4 -4 1021.0 1013.1
21 9.01 З 1 20 км 10/0
[Cs]
-0.8 -2.1 91 -3 -3 1021.8 1013.9
00 10.01 З 1 20 км 9/0 2000 м
[Ac trans Cs]
-1.3 -2.1 94 -4 -4 1023.2 1015.2
03 10.01 штиль 0 20 км 9/0 2000 м
[Ac trans Cs]
-1.6 -2.2 96 -3 -3 1022.1 1014.2 -3.5 2
06 10.01 штиль 0 20 км 9/9 600 м
[Cb calv]
-1.0 -1.6 96 -2 -2 1022.6 1014.7
09 10.01 В 2 20 км 8/0 2000 м
[Ac lent Cc]
+6.8 -5.1 42 +5 +8 1021.3 1013.6
12 10.01 ЮВ 1 20 км 9/3 600 м
[Cb calv Ac lent]
+6.5 -4.3 46 +6 +7 1019.7 1012.0
15 10.01 штиль 0 20 км 9/3 600 м
[Cb calv Ac lent]
+3.6 -1.4 70 +3 +3 1019.2 1011.5 +7.4
18 10.01 ЮЗ 1
{14}
20 км 3/3 600 м
[Cu med, cong]
+6.6 -0.3 61 +6 +6 1018.6 1010.9
21 10.01 ЮЗ 2 20 км 3/1 600 м
[Cu med, cong Ac trans]
+9.5 -5.4 34 +9 +9 1017.8 1010.2
00 11.01 Ю 4-10
{12}
20 км ясно +10.1 -4.5 35 +8 +8 1017.2 1009.7
03 11.01 Ю 3-10
{13}
20 км 5/3 600 м
[Cu med, cong Ac lent Ci fib]
+10.5 -5.0 33 +9 +9 1016.6 1009.0 +2.4
06 11.01 Ю 3
{12}
20 км 10/4 600 м
[Cb calv Ac cast Cs]
+10.0 -2.2 42 +8 +9 1017.2 1009.6
09 11.01 Ю 3-11
{13}
20 км 10/3 1000 м
[Cb calv Ac lent Cs]
+13.2 -6.1 26 +12 +14 1015.7 1008.2
12 11.01 Ю 5-13
{15}
20 км 10/3 600 м
[Sc Ac trans Cs]
+13.1 -7.5 23 +12 +12 1014.6 1007.1
15 11.01 Ю 4-10
{13}
20 км 8/3 600 м
[Sc Ac trans Cs]
+12.2 -5.5 29 +11 +11 1014.1 1006.6 +13.7
18 11.01 Ю 3
{12}
20 км 8/0 2000 м
[Ac trans Cs]
+11.9 -0.5 42 +11 +11 1014.0 1006.5
21 11.01 ЮЗ 3
{11}
20 км {ливн. осадки} 5/3 600 м
[Cb calv Ci fib]
+11.2 +1.6 52 +10 +10 1012.2 1004.7
00 12.01 Ю 3
{12}
10 км слаб. ливневой дождь 10/8 600 м
[Cb cap Ac As]
+10.0 +4.5 69 +8 +8 1012.0 1004.5
03 12.01 ЮЗ 3 10 км слаб. ливневой дождь 10/10 600 м
[Cb cap]
+9.0 +4.7 74 +7 +7 1011.6 1004.1 +9.0 0.4
06 12.01 З 3 10 км слаб. ливневой дождь 10/10 600 м
[Cb cap]
+7.7 +2.7 71 +5 +5 1013.7 1006.1 +7.7
09 12.01 ЮЗ 2-10
{10}
20 км {ливн. осадки} 10/8 600 м
[Cb calv Ac und]
+7.7 +0.9 62 +6 +6 1013.4 1005.8
12 12.01 ЮЗ 2
{10}
20 км {ливн. осадки} 10/10 600 м
[Cb calv]
+7.5 +0.1 59 +6 +6 1012.6 1005.0
15 12.01 В 1 20 км 10/8 600 м
[Cb calv Ac und]
+3.8 +0.1 77 +3 +3 1012.2 1004.5 +9.0 0.4
18 12.01 СВ 1 20 км 10/9 600 м
[Cb calv Ac und]
+4.0 -0.2 74 +3 +3 1010.9 1003.2
21 12.01 штиль 0 10 км слаб. ливневой дождь 10/10 600 м
[Cb cap]
+2.1 +1.0 92 +1 +1 1009.9 1002.2
00 13.01 З 1 10 км слаб. ливневой дождь 10/10 600 м
[Cb cap]
+3.3 +2.6 95 +2 +2 1008.7 1001.0
03 13.01 З 1 10 км слаб. ливневой дождь 10/10 600 м
[Cb cap]
+3.0 +2.1 94 +1 +1 1008.4 1000.7 +2.1 12
06 13.01 штиль 0 2000 м слаб. ливневой дождь со снегом 10/10 600 м
[Cb cap]
+0.5 -0.3 94 -1 -1 1009.8 1002.0 +0.5
09 13.01 штиль 0 20 км {ливн. осадки} 10/10 600 м
[Sc]
+1.9 +1.2 95 +1 +1 1009.8 1002.1
12 13.01 СВ 1 20 км {ливн. осадки} 9/6 600 м
[Cb calv Ac cuf]
+3.8 +1.4 84 +2 +3 1009.4 1001.8
15 13.01 С 1 20 км 10/5 600 м
[Cb calv Ac und]
+1.7 -0.4 86 -0 -0 1009.9 1002.2 +3.9 5
18 13.01 штиль 0 20 км 10/5 600 м
[Cb calv Ac und]
+1.4 -0.9 85 0 0 1009.9 1002.2
21 13.01 ЮВ 1 20 км 10/5 600 м
[Cb calv Ac und]
+1.2 -0.6 88 -1 -1 1009.5 1001.8
00 14.01 штиль 0 20 км 10/5 600 м
[Cb calv Ac und]
+1.1 +0.2 94 -0 -0 1008.2 1000.5
03 14.01 С 1 4000 м дымка 10/4 600 м
[Cb calv Ac und]
+1.0 +0.3 95 -1 -1 1006.6 998.8 +1.0
06 14.01 штиль 0 20 км дымка 9/5 600 м
[Cb calv Ac cuf]
+1.2 +0.7 96 -0 0 1006.1 998.4 +0.7
09 14.01 штиль 0 4000 м слаб. ливневой дождь 10/10 600 м
[Cb cap]
+3.1 +2.2 94 +2 +2 1005.3 997.7
12 14.01 СЗ 1 4000 м слаб. ливневой дождь 10/10 600 м
[Cb cap]
+4.1 +3.4 95 +3 +3 1003.8 996.2
15 14.01 штиль 0 4000 м дымка {ливн. осадки} 9/8 600 м
[Cb calv Ac trans]
+4.0 +3.2 95 +3 +3 1003.2 995.6 +4.5 11
18 14.01 Ю 3-10
{11}
20 км {ливн. осадки} 5/5 600 м
[Cb calv]
+10.1 +0.2 50 +8 +8 1002.2 994.7
21 14.01 Ю 6-15
{15}
20 км {ливн. осадки} 9/9 600 м
[Cb calv Ac cuf Cs]
+10.8 -0.2 47 +8 +8 1003.0 995.5
00 15.01 Ю 2
{15}
20 км {ливн. осадки} 9/9 600 м
[Cb calv Ac cuf]
+9.4 +2.0 60 +8 +8 1004.0 996.5
03 15.01 Ю 1 10 км слаб. ливневой дождь 10/10 600 м
[Cb cap]
+7.5 +4.6 82 +7 +7 1004.4 996.8 +3.3 1
06 15.01 штиль 0 4000 м слаб. ливневой дождь 10/9 300 м
[Cb cap Ac und]
+5.6 +4.8 95 +4 +4 1005.0 997.4
09 15.01 Ю 2 10 км слаб. ливневой дождь 10/5 600 м
[Cb cap Ac cuf Cs]
+10.4 +3.8 64 +9 +10 1004.3 996.8
12 15.01 Ю 1 20 км в посл. час ливневой дождь 8/4 600 м
[Cb calv Ac cuf Cc]
+10.6 +3.9 63 +11 +11 1002.9 995.5
15 15.01 Ю 1 20 км 10/6 600 м
[Cb calv Ac und]
+8.3 +5.1 80 +8 +8 1001.3 993.9 +11.0 3
18 15.01 Ю 1 4000 м ливневой дождь 10/10 600 м
[Cb cap]
+9.2 +5.4 77 +9 +9 1000.1 992.7
21 15.01 штиль 0 4000 м слаб. ливневой дождь 10/10 600 м
[Cb cap]
+8.4 +6.2 86 +8 +8 997.5 990.0
00 16.01 СЗ 1 4000 м ливневой дождь 10/10 600 м
[Cb cap]
+6.3 +5.4 94 +5 +5 996.6 989.1

 

Местоположение метеостанции Горячий Ключ (Краснодарский край, Россия): широта 44.63 долгота 39.10 высота над уровнем моря 62 м.

В архиве по умолчанию представлена погода в Горячем Ключе за последнюю неделю. Архивные данные за месяц целиком и за предыдущие месяцы, начиная с января 2011 года, Вы можете получить, выбрав интересующий диапазон дат из раскрывающегося списка и нажав кнопку "Ввод!".


*Определитесь, кто Вы:
робот инопланетянин человек

Внимание! Время в таблицах - всемирное. Для получения местного времени необходимо прибавить поправку, которая равна 3 ч.

Смотрите также архив погоды в соседних городах и на ближайших метеорологических станциях:

Погода в Горном (Краснодарский край, Россия) (41 км)
Погода в Джубге (Краснодарский край, Россия) (45 км)
Погода в Краснодаре (Краснодарский край, Россия) (47 км)
Погода в Туапсе (Краснодарский край, Россия) (59 км)
Погода в Белореченске (Краснодарский край, Россия) (65 км)
Погода в Магри (Краснодарский край, Россия) (68 км)
Погода в Майкопе (Адыгея, Россия) (78 км)
Погода в Геленджике (Краснодарский край, Россия) (81 км)
Погода в Шунтуке (Адыгея, Россия) (83 км)
Погода в Усть-Лабинске (Краснодарский край, Россия) (83 км)

Пояснения к столбцам:

Ветер - указаны скорость ветра в м/с - средняя за 10 мин, порывы в срок и между сроками (в фигурных скобках) и направление, откуда дует ветер: С - северный, СВ - северо-восточный, В - восточный, ЮВ - юго-восточный, Ю - южный, ЮЗ - юго-западный, З - западный, СЗ - северо-западный.
Видимость - горизонтальная дальность видимости в метрах или километрах. При видимости от 1 до 10 км при отсутствии осадков обычно наблюдается дымка, при ухудшении видимости до 1 км и менее - туман. В сухую погоду видимость может ухудшаться дымом, пылью или мглою.
Явления - указаны атмосферные явления, наблюдавшиеся в срок или в последний час перед сроком; фигурными скобками обозначены явления, наблюдавшиеся между сроками (за 1-3 часа до срока); квадратными скобками обозначены град или гололедные отложения с указанием их диаметра в мм.
Облачность - указаны через наклонную черту общая и нижняя облачность в баллах и высота нижней границы облаков в метрах; квадратными скобками обозначены формы облаков: Ci - перистые, Cs - перисто-слоистые, Cc - перисто-кучевые, Ac - высококучевые, As - высокослоистые, Sc - слоисто-кучевые, Ns - слоисто-дождевые, Cu - кучевые, Cb - кучево-дождевые. Подробнее классификацию облаков см. в Атласе облаков (PDF).
T - Температура воздуха - температура, измеренная на высоте 2 м над землей.
Td - Температура точки росы - температура, при понижении до которой содержащийся в воздухе водяной пар достигнет насыщения.
f - Относительная влажность воздуха - влажноcть воздуха, измеренная на высоте 2 м над землей.
Te - Эффективная температура - температура, которую ощущает одетый по сезону человек в тени. Характеристика душности погоды. При расчете учитывается влияние влажности воздуха и скорости ветра на теплоощущения человека.
Tes - Эффективная температура на солнце - температура, которую ощущает человек, с поправкой на солнечный нагрев. Характеристика знойности погоды. Зависит от высоты солнца над горизонтом, облачности и скорости ветра. Ночью, в пасмурную погоду, а также при ветре 12 м/с и более поправка равна нулю.
P - Атмосферное давление - приведенное к уровню моря атмосферное давление.
Po - Атмосферное давление - измеренное на уровне метеостанции атмосферное давление.
Tmin - Минимальная температура - минимум температуры воздуха на высоте 2 м над землей.
Tmax - Максимальная температура - максимум температуры воздуха на высоте 2 м над землей.
R - Количество осадков - Количество выпавших осадков за период времени, мм. При наведении курсора мыши на число - период времени, за который выпало указанное количество осадков.
R24 - Количество осадков - Количество выпавших осадков за 24 часа, мм.
S - Снежный покров - Высота снежного покрова, см. При наведении курсора мыши на число - состояние снежного покрова и степень покрытия местности в баллах.